GEFSSE_prec_meanprecacc_216.txt.gz
Total_Precipitation_Accumulation
0.73 0.82 1.10 0.98 0.85 0.75 0.69 0.69 0.70 0.66 0.66 0.60 0.55 0.51 0.49 0.47 0.51 0.58 0.62 0.71 0.80 0.87 0.99 1.08 1.12 1.16 1.18 1.15 1.18 1.17 1.09 1.12 1.25 1.40 1.45 1.45 1.56 1.72 1.96 2.13 1.96 1.35 1.32
0.34 0.47 0.88 0.83 0.69 0.64 0.60 0.63 0.64 0.63 0.60 0.56 0.53 0.51 0.56 0.55 0.53 0.65 0.75 0.81 0.83 0.95 0.99 0.98 1.04 1.04 1.04 1.01 1.03 1.13 1.09 1.26 1.50 1.86 1.96 1.77 1.90 1.93 1.94 1.88 1.87 1.36 1.38
0.19 0.27 0.50 0.70 0.59 0.55 0.57 0.57 0.61 0.56 0.53 0.54 0.55 0.55 0.58 0.58 0.57 0.61 0.68 0.72 0.82 0.95 0.95 0.89 0.95 0.90 0.88 0.96 0.98 1.07 1.18 1.48 1.85 2.37 2.64 1.97 1.57 1.91 1.83 1.72 1.60 1.28 1.24
0.15 0.15 0.19 0.44 0.53 0.51 0.53 0.53 0.55 0.55 0.54 0.54 0.62 0.56 0.54 0.60 0.66 0.69 0.64 0.66 0.76 0.85 0.82 0.84 0.77 0.84 0.85 0.91 1.02 1.16 1.36 1.60 2.05 2.53 2.54 1.67 1.18 1.44 1.54 1.38 1.33 1.24 1.23
0.16 0.13 0.21 0.37 0.41 0.44 0.51 0.51 0.51 0.57 0.64 0.64 0.64 0.53 0.56 0.60 0.71 0.77 0.71 0.73 0.78 0.81 0.82 0.86 0.80 0.91 0.84 0.89 0.99 1.15 1.42 1.69 2.04 2.15 1.69 1.70 1.67 1.47 1.25 1.17 1.28 1.40 1.25
0.26 0.19 0.25 0.38 0.40 0.41 0.47 0.48 0.49 0.58 0.68 0.65 0.64 0.59 0.60 0.61 0.72 0.72 0.73 0.80 0.79 0.85 0.93 0.98 0.91 0.93 0.88 0.86 0.94 1.09 1.28 1.60 1.71 1.25 1.09 1.39 1.52 1.49 1.36 1.34 1.34 1.32 1.17
0.41 0.42 0.40 0.48 0.47 0.45 0.45 0.49 0.49 0.55 0.63 0.68 0.66 0.61 0.62 0.64 0.72 0.74 0.75 0.78 0.76 0.87 0.99 1.06 1.01 0.95 0.95 0.99 1.04 1.13 1.26 1.48 1.32 0.99 1.07 1.38 1.42 1.38 1.58 1.66 1.51 1.25 1.06
0.80 0.77 0.75 0.70 0.62 0.58 0.54 0.57 0.57 0.58 0.57 0.63 0.67 0.64 0.62 0.66 0.68 0.69 0.73 0.76 0.76 0.81 0.92 0.99 0.98 0.94 0.96 1.00 1.04 1.05 1.19 1.19 0.90 0.94 1.10 1.23 1.11 1.22 1.59 1.79 1.65 1.46 1.22
1.15 1.08 0.92 0.78 0.70 0.66 0.72 0.69 0.64 0.60 0.59 0.61 0.67 0.63 0.60 0.63 0.60 0.60 0.70 0.77 0.75 0.80 0.89 0.93 0.90 0.95 0.92 0.92 0.97 1.00 1.16 1.16 0.96 1.12 1.10 1.17 1.07 1.22 1.45 1.60 1.53 1.43 1.28
1.57 1.39 1.10 0.92 0.93 0.78 0.73 0.76 0.72 0.65 0.65 0.67 0.70 0.68 0.72 0.75 0.73 0.77 0.80 0.90 0.86 0.85 0.87 0.94 0.99 0.97 0.97 0.97 0.97 1.08 1.20 1.12 0.90 1.05 1.27 1.11 1.14 1.35 1.46 1.46 1.49 1.47 1.33
1.98 1.57 1.19 1.10 1.18 1.06 0.88 0.80 0.97 0.90 0.86 0.90 0.98 0.99 1.21 1.52 1.26 1.23 1.02 1.13 1.09 1.09 1.13 1.22 1.27 1.27 1.22 1.11 1.15 1.30 1.23 1.11 1.21 1.34 1.54 1.17 1.17 1.44 1.60 1.64 1.57 1.47 1.37
1.94 1.90 1.57 1.34 1.27 1.29 1.13 1.13 1.53 1.49 1.43 1.58 1.66 1.61 1.97 1.98 1.76 1.27 1.23 1.54 1.53 1.60 1.69 1.91 2.04 1.82 1.51 1.33 1.51 1.94 1.45 1.25 1.39 1.43 1.47 1.29 1.37 1.73 1.87 1.84 1.61 1.39 1.32
1.92 1.84 1.90 1.73 1.56 1.53 1.64 1.53 1.67 1.89 1.95 2.06 1.99 2.00 2.23 1.89 1.62 1.44 1.63 1.99 2.02 2.06 2.12 2.34 2.49 1.96 1.97 2.28 2.35 2.26 1.97 1.77 1.73 1.80 1.77 1.75 1.82 2.09 2.13 2.08 1.88 1.62 1.43
2.17 2.07 2.33 2.26 2.15 2.15 2.01 1.97 1.79 1.75 1.78 1.88 1.98 1.93 2.08 2.10 1.98 1.97 2.10 2.16 2.30 2.44 2.69 2.55 2.69 2.65 2.72 2.57 2.56 2.59 2.47 2.31 2.15 2.31 2.63 2.46 2.34 2.37 2.52 2.32 2.03 1.93 1.80
2.61 2.68 2.85 2.89 2.98 2.79 2.54 2.32 1.92 1.90 1.80 1.75 1.81 1.81 2.02 2.27 2.32 2.43 2.23 2.26 2.05 2.17 2.52 2.82 2.84 3.03 3.16 3.02 2.65 2.43 2.46 2.42 2.19 2.17 2.44 2.62 2.63 2.52 2.61 2.58 2.30 2.18 2.13
3.27 3.45 3.45 3.47 3.50 3.31 2.90 2.64 2.34 2.03 2.03 1.83 1.80 1.88 2.34 2.56 2.52 2.60 2.48 2.43 2.12 2.12 2.44 2.81 2.88 3.17 3.19 3.20 2.70 2.36 2.29 2.29 2.08 1.99 2.08 2.48 2.47 2.32 2.34 2.54 2.59 2.53 2.43
3.99 4.15 4.33 4.23 3.94 3.91 3.56 2.88 2.38 2.10 1.92 1.98 2.09 2.15 2.39 2.56 2.74 2.90 2.81 2.45 2.21 2.28 2.48 2.52 2.66 3.14 3.01 2.96 2.79 2.69 2.63 2.40 2.15 2.06 1.98 2.13 2.05 2.16 2.25 2.33 2.52 2.72 2.75
4.57 4.97 5.16 4.78 4.66 4.62 4.26 3.65 3.09 2.77 2.54 2.51 2.49 2.31 2.12 2.34 2.46 2.68 2.45 2.07 2.15 2.35 2.50 2.51 2.53 2.91 3.03 3.04 3.02 2.87 2.72 2.48 2.12 1.98 1.93 1.86 1.85 1.67 1.92 2.15 2.39 2.64 2.94
4.88 5.59 5.97 6.12 5.61 5.20 4.60 4.13 3.61 3.26 3.04 2.79 2.49 2.22 1.94 1.77 1.69 1.91 1.88 1.80 1.81 2.06 2.11 1.87 2.11 2.42 2.62 2.74 2.55 2.41 2.10 1.88 1.73 1.64 1.62 1.51 1.67 1.75 1.85 1.85 2.13 2.36 2.83
5.00 5.70 6.10 6.30 5.75 5.01 4.66 4.57 4.17 3.60 3.18 2.81 2.42 2.15 1.78 1.63 1.45 1.63 1.64 1.50 1.49 1.62 1.67 1.85 2.14 2.21 2.13 2.18 1.90 1.83 1.75 1.55 1.51 1.47 1.30 1.31 1.46 1.44 1.55 1.74 2.00 1.83 2.29
5.35 6.01 6.12 5.83 5.10 4.56 4.12 3.85 3.54 3.25 2.96 2.48 2.08 1.82 1.69 1.59 1.51 1.66 1.50 1.51 1.43 1.47 1.47 1.56 1.77 1.84 1.62 1.79 2.03 1.85 1.56 1.33 1.35 1.32 1.26 1.32 1.39 1.46 1.58 1.91 2.08 2.06 1.90
4.94 5.29 5.35 4.94 4.17 3.67 3.37 3.27 2.99 2.74 2.39 2.17 1.92 1.86 1.62 1.53 1.49 1.38 1.48 1.32 1.28 1.43 1.40 1.48 1.68 1.69 1.48 1.61 1.88 1.95 1.70 1.62 1.35 0.96 1.14 1.25 1.29 1.55 1.63 1.65 1.89 2.26 2.21
4.42 4.18 3.89 3.69 3.27 3.12 3.03 2.83 2.59 2.52 2.22 2.03 1.82 1.71 1.46 1.29 1.23 1.23 1.23 1.14 1.19 1.10 1.25 1.42 1.54 1.69 1.65 1.48 1.46 1.73 1.68 1.64 1.47 1.09 0.96 1.05 1.27 1.51 1.50 1.60 1.66 1.97 2.25
3.44 3.14 2.93 2.84 2.75 2.68 2.57 2.43 2.11 1.91 1.88 1.74 1.64 1.63 1.51 1.33 1.25 1.21 1.13 1.19 1.19 1.05 1.28 1.10 1.24 1.51 1.62 1.44 1.46 1.41 1.43 1.54 1.58 1.45 1.24 1.08 1.22 1.30 1.38 1.42 1.57 1.86 2.06
2.18 2.33 2.37 2.44 2.56 2.46 2.40 2.36 2.23 1.95 1.89 1.86 1.85 1.92 1.78 1.58 1.37 1.15 1.15 1.28 1.32 1.17 1.19 1.20 1.37 1.38 1.41 1.41 1.41 1.40 1.56 1.59 1.44 1.47 1.47 1.36 1.29 1.08 1.22 1.44 1.58 1.72 1.84
1.49 1.67 1.84 1.91 2.07 2.20 2.21 2.09 2.03 1.95 1.97 1.97 1.91 1.76 1.56 1.44 1.35 1.23 1.28 1.43 1.39 1.34 1.29 1.25 1.27 1.31 1.45 1.55 1.53 1.43 1.50 1.55 1.50 1.58 1.42 1.34 1.38 1.20 1.32 1.57 1.64 1.70 1.71

GEFSSE_prec_meanprecacc_222.txt.gz
Total_Precipitation_Accumulation
0.76 0.88 1.19 1.10 0.98 0.86 0.75 0.74 0.76 0.72 0.73 0.67 0.64 0.60 0.58 0.58 0.60 0.67 0.72 0.82 0.93 1.00 1.10 1.19 1.22 1.25 1.27 1.26 1.31 1.25 1.15 1.19 1.31 1.46 1.51 1.52 1.62 1.79 2.08 2.24 2.05 1.39 1.35
0.37 0.54 0.97 0.94 0.78 0.73 0.67 0.70 0.70 0.69 0.68 0.64 0.61 0.60 0.63 0.61 0.59 0.72 0.84 0.90 0.94 1.05 1.06 1.08 1.14 1.14 1.14 1.13 1.14 1.21 1.18 1.33 1.55 1.93 2.03 1.84 1.99 2.03 2.06 1.97 1.93 1.40 1.42
0.24 0.36 0.60 0.80 0.68 0.62 0.63 0.65 0.69 0.63 0.60 0.61 0.62 0.63 0.64 0.64 0.64 0.69 0.77 0.81 0.93 1.06 1.04 0.99 1.04 1.00 1.00 1.07 1.08 1.16 1.27 1.56 1.93 2.44 2.72 2.03 1.64 1.99 1.92 1.79 1.65 1.33 1.28
0.25 0.24 0.26 0.53 0.61 0.58 0.60 0.61 0.64 0.62 0.61 0.61 0.69 0.63 0.62 0.68 0.74 0.79 0.73 0.76 0.87 0.97 0.94 0.95 0.86 0.94 0.95 1.00 1.11 1.24 1.43 1.66 2.11 2.59 2.58 1.70 1.21 1.50 1.60 1.43 1.37 1.29 1.27
0.24 0.19 0.27 0.45 0.49 0.51 0.59 0.58 0.58 0.64 0.71 0.72 0.70 0.59 0.63 0.67 0.77 0.84 0.77 0.80 0.86 0.91 0.92 0.95 0.90 1.00 0.93 0.97 1.08 1.24 1.50 1.75 2.10 2.18 1.71 1.71 1.70 1.53 1.30 1.21 1.31 1.44 1.28
0.30 0.23 0.29 0.44 0.45 0.47 0.52 0.56 0.60 0.74 0.82 0.77 0.71 0.65 0.67 0.68 0.79 0.79 0.79 0.86 0.84 0.93 1.03 1.10 1.03 1.05 1.02 0.98 1.05 1.19 1.39 1.69 1.75 1.27 1.10 1.40 1.53 1.54 1.40 1.37 1.36 1.35 1.21
0.44 0.44 0.43 0.54 0.52 0.52 0.53 0.59 0.67 0.74 0.77 0.79 0.74 0.68 0.68 0.69 0.78 0.80 0.81 0.84 0.82 0.96 1.08 1.18 1.15 1.12 1.10 1.13 1.17 1.23 1.35 1.55 1.35 1.01 1.08 1.39 1.44 1.43 1.63 1.70 1.54 1.30 1.12
0.81 0.78 0.77 0.74 0.67 0.63 0.61 0.66 0.72 0.68 0.65 0.72 0.74 0.70 0.67 0.71 0.74 0.75 0.79 0.82 0.82 0.94 1.05 1.15 1.19 1.13 1.10 1.13 1.16 1.15 1.27 1.23 0.92 0.96 1.11 1.25 1.15 1.28 1.66 1.86 1.72 1.53 1.29
1.18 1.11 0.94 0.82 0.73 0.71 0.77 0.78 0.73 0.66 0.64 0.67 0.72 0.68 0.65 0.68 0.65 0.64 0.74 0.82 0.83 0.92 1.02 1.13 1.12 1.12 1.05 1.04 1.08 1.11 1.24 1.22 1.00 1.16 1.13 1.19 1.12 1.30 1.52 1.69 1.62 1.52 1.35
1.60 1.43 1.13 0.94 0.96 0.82 0.77 0.82 0.80 0.71 0.70 0.71 0.74 0.72 0.75 0.79 0.77 0.82 0.85 0.96 0.95 0.98 1.01 1.10 1.12 1.10 1.06 1.06 1.07 1.18 1.27 1.19 1.00 1.14 1.32 1.16 1.21 1.43 1.55 1.56 1.62 1.59 1.41
2.01 1.59 1.22 1.12 1.20 1.09 0.91 0.84 1.03 0.95 0.90 0.94 1.01 1.04 1.25 1.54 1.28 1.26 1.07 1.20 1.17 1.19 1.22 1.31 1.37 1.36 1.30 1.18 1.23 1.38 1.31 1.19 1.28 1.41 1.65 1.30 1.29 1.56 1.73 1.76 1.67 1.57 1.44
1.97 1.93 1.60 1.36 1.28 1.31 1.16 1.16 1.56 1.51 1.44 1.60 1.69 1.64 1.98 1.99 1.77 1.28 1.27 1.61 1.60 1.67 1.76 1.98 2.12 1.89 1.56 1.36 1.55 1.98 1.51 1.31 1.44 1.50 1.63 1.45 1.51 1.86 2.01 1.96 1.69 1.45 1.37
1.95 1.87 1.92 1.75 1.59 1.56 1.66 1.55 1.69 1.90 1.96 2.07 2.01 2.02 2.24 1.91 1.63 1.46 1.65 2.04 2.07 2.11 2.17 2.38 2.53 1.99 1.99 2.30 2.36 2.27 2.00 1.80 1.77 1.87 1.87 1.87 1.94 2.20 2.26 2.18 1.96 1.68 1.47
2.20 2.10 2.35 2.27 2.18 2.20 2.04 2.00 1.82 1.78 1.80 1.89 2.00 1.94 2.10 2.11 1.99 1.98 2.11 2.16 2.32 2.46 2.70 2.56 2.70 2.67 2.74 2.59 2.57 2.60 2.48 2.32 2.18 2.34 2.67 2.52 2.40 2.44 2.61 2.42 2.11 1.99 1.86
2.64 2.71 2.88 2.93 3.02 2.83 2.57 2.35 1.95 1.93 1.83 1.78 1.84 1.84 2.04 2.28 2.33 2.45 2.24 2.27 2.06 2.18 2.54 2.84 2.86 3.05 3.19 3.04 2.66 2.44 2.47 2.43 2.21 2.20 2.48 2.67 2.68 2.58 2.68 2.69 2.40 2.23 2.18
3.29 3.47 3.48 3.51 3.54 3.34 2.93 2.66 2.36 2.06 2.06 1.86 1.83 1.92 2.36 2.58 2.54 2.64 2.50 2.45 2.14 2.14 2.45 2.82 2.89 3.19 3.22 3.23 2.72 2.38 2.31 2.30 2.10 2.02 2.12 2.52 2.52 2.39 2.42 2.65 2.71 2.64 2.53
4.00 4.18 4.38 4.27 3.98 3.97 3.61 2.91 2.40 2.12 1.94 2.01 2.14 2.20 2.44 2.60 2.77 2.94 2.84 2.47 2.23 2.30 2.50 2.54 2.69 3.17 3.04 2.99 2.82 2.71 2.65 2.42 2.17 2.10 2.02 2.18 2.10 2.23 2.34 2.42 2.64 2.85 2.88
4.60 5.01 5.20 4.81 4.69 4.66 4.29 3.68 3.12 2.79 2.56 2.53 2.53 2.34 2.15 2.37 2.51 2.72 2.49 2.10 2.17 2.37 2.52 2.54 2.55 2.94 3.05 3.07 3.05 2.89 2.75 2.53 2.16 2.05 1.99 1.93 1.93 1.73 1.98 2.24 2.49 2.75 3.06
4.90 5.61 5.99 6.15 5.64 5.21 4.61 4.15 3.64 3.29 3.06 2.81 2.52 2.24 1.96 1.80 1.73 1.96 1.92 1.83 1.85 2.10 2.15 1.89 2.13 2.44 2.64 2.76 2.57 2.43 2.14 1.93 1.77 1.69 1.68 1.58 1.75 1.83 1.92 1.93 2.23 2.47 2.96
5.01 5.72 6.12 6.32 5.77 5.02 4.68 4.59 4.21 3.63 3.21 2.83 2.45 2.18 1.81 1.66 1.49 1.68 1.68 1.52 1.52 1.66 1.71 1.87 2.15 2.24 2.16 2.20 1.92 1.85 1.78 1.58 1.54 1.53 1.36 1.38 1.53 1.51 1.63 1.85 2.12 1.94 2.41
5.37 6.02 6.14 5.84 5.12 4.57 4.14 3.88 3.57 3.27 2.98 2.51 2.11 1.85 1.72 1.63 1.56 1.72 1.56 1.57 1.48 1.51 1.51 1.59 1.80 1.88 1.67 1.84 2.07 1.88 1.58 1.35 1.37 1.35 1.29 1.37 1.44 1.52 1.63 1.97 2.16 2.17 2.00
4.95 5.30 5.36 4.96 4.19 3.69 3.40 3.30 3.01 2.77 2.42 2.20 1.95 1.90 1.65 1.56 1.54 1.44 1.55 1.38 1.33 1.48 1.45 1.52 1.72 1.72 1.52 1.65 1.92 1.98 1.73 1.64 1.36 0.97 1.15 1.28 1.33 1.60 1.70 1.72 1.97 2.36 2.31
4.42 4.19 3.89 3.70 3.29 3.15 3.07 2.87 2.62 2.56 2.27 2.07 1.86 1.75 1.49 1.31 1.27 1.29 1.29 1.19 1.26 1.15 1.30 1.47 1.59 1.73 1.69 1.52 1.50 1.78 1.71 1.66 1.48 1.10 0.97 1.07 1.31 1.56 1.56 1.66 1.73 2.04 2.32
3.44 3.14 2.93 2.85 2.76 2.70 2.59 2.45 2.14 2.00 1.94 1.77 1.67 1.66 1.54 1.36 1.28 1.26 1.18 1.25 1.24 1.10 1.32 1.14 1.29 1.55 1.66 1.50 1.51 1.45 1.48 1.59 1.61 1.46 1.25 1.09 1.25 1.34 1.43 1.47 1.62 1.92 2.13
2.19 2.33 2.37 2.45 2.58 2.48 2.42 2.39 2.28 2.01 1.93 1.87 1.86 1.93 1.80 1.62 1.41 1.20 1.21 1.35 1.38 1.24 1.25 1.25 1.41 1.43 1.47 1.48 1.49 1.47 1.62 1.64 1.48 1.50 1.49 1.40 1.34 1.12 1.26 1.50 1.65 1.78 1.91
1.49 1.68 1.85 1.92 2.09 2.23 2.22 2.12 2.05 1.97 1.99 1.99 1.93 1.77 1.58 1.46 1.38 1.26 1.32 1.50 1.46 1.41 1.37 1.31 1.34 1.39 1.54 1.64 1.61 1.51 1.57 1.62 1.57 1.65 1.49 1.41 1.45 1.27 1.41 1.66 1.73 1.80 1.78

GEFSSE_prec_meanprecacc_228.txt.gz
Total_Precipitation_Accumulation
0.84 0.97 1.29 1.24 1.15 1.00 0.85 0.84 0.84 0.79 0.82 0.77 0.74 0.68 0.68 0.69 0.71 0.83 0.89 0.99 1.08 1.14 1.22 1.30 1.34 1.35 1.36 1.34 1.40 1.37 1.27 1.29 1.38 1.52 1.57 1.58 1.68 1.85 2.14 2.29 2.09 1.43 1.39
0.42 0.61 1.07 1.07 0.93 0.86 0.78 0.81 0.79 0.77 0.78 0.73 0.68 0.68 0.73 0.71 0.69 0.84 0.97 1.04 1.09 1.20 1.20 1.24 1.29 1.28 1.26 1.22 1.23 1.32 1.29 1.41 1.64 2.00 2.12 1.91 2.04 2.09 2.12 2.02 1.98 1.45 1.45
0.28 0.41 0.66 0.91 0.80 0.77 0.77 0.77 0.79 0.71 0.68 0.69 0.70 0.73 0.76 0.76 0.77 0.82 0.89 0.94 1.07 1.19 1.16 1.13 1.17 1.13 1.11 1.16 1.19 1.28 1.38 1.64 2.02 2.55 2.84 2.11 1.68 2.03 1.97 1.84 1.69 1.37 1.30
0.30 0.30 0.32 0.62 0.74 0.77 0.76 0.74 0.74 0.70 0.68 0.69 0.79 0.75 0.75 0.82 0.92 0.95 0.88 0.89 0.99 1.09 1.09 1.08 0.98 1.07 1.06 1.10 1.20 1.35 1.52 1.72 2.18 2.66 2.65 1.76 1.25 1.54 1.64 1.48 1.43 1.32 1.30
0.29 0.25 0.36 0.56 0.61 0.67 0.73 0.70 0.66 0.72 0.80 0.82 0.81 0.69 0.74 0.78 0.92 0.98 0.90 0.91 0.94 1.02 1.07 1.11 1.02 1.12 1.06 1.11 1.19 1.34 1.58 1.81 2.16 2.22 1.76 1.78 1.76 1.57 1.34 1.28 1.38 1.48 1.32
0.38 0.32 0.40 0.59 0.58 0.60 0.65 0.67 0.69 0.81 0.90 0.87 0.82 0.74 0.77 0.80 0.91 0.91 0.89 0.96 0.93 1.02 1.14 1.24 1.17 1.19 1.18 1.15 1.18 1.28 1.46 1.77 1.82 1.32 1.14 1.45 1.60 1.60 1.45 1.45 1.45 1.40 1.24
0.50 0.50 0.54 0.70 0.67 0.63 0.61 0.69 0.78 0.87 0.90 0.92 0.86 0.78 0.78 0.79 0.88 0.90 0.89 0.93 0.91 1.05 1.18 1.28 1.26 1.23 1.26 1.31 1.33 1.36 1.46 1.64 1.40 1.04 1.11 1.43 1.50 1.51 1.69 1.78 1.62 1.37 1.16
0.87 0.85 0.87 0.90 0.84 0.78 0.71 0.78 0.92 0.90 0.84 0.87 0.86 0.79 0.76 0.81 0.87 0.86 0.86 0.89 0.89 1.01 1.13 1.23 1.26 1.22 1.23 1.29 1.31 1.28 1.37 1.30 0.96 0.97 1.13 1.29 1.21 1.36 1.74 1.94 1.80 1.62 1.36
1.23 1.19 1.03 0.93 0.87 0.86 0.93 0.99 0.95 0.83 0.82 0.84 0.87 0.80 0.74 0.78 0.76 0.73 0.81 0.90 0.88 0.99 1.10 1.22 1.21 1.21 1.17 1.19 1.20 1.21 1.33 1.31 1.06 1.19 1.15 1.24 1.18 1.39 1.62 1.78 1.70 1.59 1.42
1.62 1.46 1.19 1.00 1.02 0.90 0.90 0.98 0.93 0.82 0.84 0.87 0.87 0.83 0.84 0.86 0.84 0.88 0.89 1.02 1.01 1.04 1.08 1.18 1.21 1.17 1.17 1.19 1.18 1.27 1.36 1.29 1.10 1.23 1.39 1.21 1.27 1.52 1.66 1.66 1.70 1.66 1.48
2.03 1.62 1.25 1.15 1.23 1.13 0.97 0.92 1.13 1.04 1.01 1.04 1.08 1.09 1.30 1.59 1.34 1.31 1.10 1.25 1.24 1.28 1.32 1.41 1.47 1.44 1.40 1.29 1.30 1.45 1.36 1.24 1.35 1.48 1.73 1.37 1.36 1.66 1.85 1.86 1.76 1.65 1.53
2.02 1.98 1.64 1.39 1.31 1.34 1.20 1.24 1.67 1.60 1.53 1.68 1.75 1.69 2.04 2.05 1.83 1.31 1.30 1.65 1.66 1.75 1.87 2.12 2.26 2.00 1.67 1.44 1.61 2.03 1.55 1.34 1.48 1.56 1.67 1.48 1.58 1.97 2.17 2.07 1.80 1.55 1.47
1.99 1.91 1.96 1.78 1.62 1.61 1.72 1.61 1.78 1.99 2.04 2.12 2.05 2.06 2.30 1.96 1.67 1.51 1.72 2.11 2.15 2.21 2.30 2.53 2.65 2.09 2.08 2.37 2.41 2.30 2.03 1.82 1.80 1.93 1.94 1.92 2.03 2.36 2.46 2.31 2.09 1.78 1.56
2.22 2.13 2.39 2.31 2.21 2.24 2.07 2.03 1.87 1.83 1.86 1.95 2.05 1.97 2.13 2.16 2.04 2.03 2.17 2.24 2.41 2.59 2.85 2.69 2.82 2.77 2.81 2.63 2.60 2.62 2.50 2.35 2.23 2.41 2.75 2.60 2.53 2.62 2.80 2.58 2.26 2.11 1.95
2.67 2.74 2.91 2.96 3.06 2.87 2.61 2.38 1.99 1.98 1.90 1.84 1.89 1.87 2.07 2.33 2.37 2.49 2.29 2.34 2.13 2.27 2.63 2.93 2.94 3.13 3.25 3.09 2.69 2.46 2.48 2.46 2.25 2.25 2.55 2.77 2.82 2.73 2.83 2.83 2.56 2.40 2.32
3.33 3.52 3.52 3.54 3.56 3.37 2.96 2.70 2.39 2.09 2.11 1.91 1.88 1.95 2.40 2.63 2.59 2.68 2.53 2.48 2.19 2.19 2.51 2.89 2.95 3.25 3.28 3.28 2.76 2.41 2.34 2.33 2.13 2.05 2.17 2.61 2.61 2.48 2.54 2.75 2.84 2.79 2.69
4.03 4.22 4.41 4.30 4.00 4.01 3.66 2.94 2.41 2.13 1.98 2.07 2.19 2.24 2.48 2.63 2.81 2.98 2.88 2.50 2.26 2.35 2.56 2.59 2.74 3.23 3.09 3.04 2.86 2.75 2.69 2.47 2.21 2.13 2.06 2.24 2.16 2.29 2.42 2.51 2.72 2.95 3.06
4.61 5.03 5.23 4.83 4.71 4.70 4.34 3.72 3.15 2.81 2.61 2.60 2.59 2.39 2.20 2.41 2.55 2.77 2.54 2.15 2.21 2.42 2.59 2.60 2.61 3.00 3.13 3.15 3.13 2.96 2.80 2.59 2.19 2.08 2.03 1.98 2.00 1.81 2.07 2.33 2.58 2.87 3.24
4.91 5.62 6.01 6.17 5.67 5.25 4.65 4.19 3.68 3.32 3.11 2.86 2.57 2.30 2.01 1.83 1.76 2.00 1.97 1.90 1.90 2.16 2.20 1.94 2.19 2.51 2.71 2.85 2.64 2.49 2.19 1.97 1.82 1.73 1.71 1.62 1.79 1.90 2.00 2.00 2.30 2.57 3.10
5.02 5.72 6.13 6.34 5.79 5.05 4.70 4.63 4.25 3.67 3.26 2.88 2.49 2.23 1.86 1.71 1.53 1.73 1.73 1.58 1.56 1.72 1.78 1.94 2.24 2.33 2.24 2.29 1.98 1.89 1.83 1.63 1.59 1.58 1.41 1.42 1.57 1.54 1.67 1.89 2.17 2.00 2.49
5.37 6.03 6.15 5.85 5.14 4.60 4.16 3.91 3.60 3.32 3.04 2.56 2.14 1.88 1.76 1.68 1.61 1.78 1.61 1.63 1.54 1.56 1.59 1.68 1.89 1.98 1.75 1.91 2.15 1.94 1.63 1.38 1.40 1.39 1.33 1.41 1.47 1.55 1.67 2.02 2.23 2.26 2.09
4.95 5.31 5.37 4.97 4.21 3.71 3.42 3.33 3.03 2.81 2.47 2.25 2.00 1.93 1.68 1.61 1.61 1.49 1.62 1.44 1.39 1.56 1.54 1.60 1.81 1.82 1.60 1.72 2.00 2.06 1.80 1.69 1.39 0.99 1.18 1.30 1.35 1.63 1.73 1.75 2.00 2.43 2.40
4.43 4.20 3.90 3.71 3.30 3.16 3.09 2.88 2.64 2.58 2.29 2.11 1.90 1.80 1.55 1.39 1.36 1.38 1.36 1.26 1.33 1.23 1.39 1.56 1.68 1.84 1.80 1.62 1.61 1.90 1.82 1.76 1.55 1.14 1.00 1.09 1.33 1.59 1.60 1.70 1.76 2.08 2.38
3.44 3.14 2.94 2.86 2.77 2.71 2.60 2.47 2.17 2.03 1.97 1.79 1.69 1.70 1.59 1.41 1.35 1.34 1.26 1.32 1.31 1.17 1.42 1.22 1.36 1.64 1.78 1.61 1.61 1.55 1.58 1.68 1.71 1.54 1.31 1.14 1.29 1.38 1.48 1.52 1.67 1.97 2.19
2.19 2.33 2.38 2.47 2.59 2.49 2.43 2.40 2.29 2.03 1.95 1.89 1.88 1.96 1.84 1.65 1.45 1.23 1.26 1.41 1.46 1.31 1.33 1.31 1.48 1.51 1.55 1.57 1.58 1.56 1.72 1.73 1.56 1.58 1.58 1.47 1.40 1.18 1.33 1.59 1.76 1.88 1.99
1.49 1.68 1.85 1.93 2.10 2.24 2.23 2.13 2.06 1.99 2.01 2.02 1.96 1.80 1.61 1.50 1.41 1.29 1.36 1.57 1.56 1.51 1.47 1.40 1.41 1.46 1.62 1.72 1.71 1.59 1.65 1.70 1.65 1.73 1.57 1.50 1.56 1.37 1.51 1.80 1.87 1.92 1.88

GEFSSE_prec_meanprecacc_234.txt.gz
Total_Precipitation_Accumulation
0.93 1.04 1.34 1.31 1.25 1.11 0.95 0.94 0.95 0.91 0.96 0.91 0.86 0.81 0.81 0.85 0.87 0.97 1.03 1.13 1.24 1.31 1.37 1.44 1.49 1.53 1.51 1.48 1.58 1.58 1.49 1.44 1.50 1.61 1.64 1.64 1.76 1.94 2.24 2.42 2.27 1.58 1.45
0.49 0.67 1.13 1.14 1.01 0.96 0.87 0.89 0.87 0.85 0.87 0.83 0.79 0.79 0.84 0.83 0.82 0.97 1.09 1.17 1.24 1.36 1.35 1.38 1.44 1.45 1.42 1.37 1.39 1.48 1.41 1.54 1.75 2.08 2.18 1.97 2.11 2.16 2.20 2.12 2.15 1.54 1.50
0.33 0.47 0.73 0.98 0.87 0.85 0.87 0.85 0.88 0.79 0.76 0.77 0.79 0.83 0.88 0.89 0.90 0.93 1.00 1.06 1.21 1.32 1.28 1.25 1.30 1.28 1.28 1.32 1.32 1.38 1.47 1.74 2.11 2.64 2.94 2.19 1.73 2.07 2.03 1.90 1.77 1.42 1.34
0.35 0.35 0.37 0.69 0.83 0.84 0.85 0.84 0.83 0.79 0.77 0.77 0.88 0.86 0.89 0.97 1.03 1.07 0.99 1.01 1.11 1.19 1.20 1.22 1.13 1.23 1.21 1.25 1.34 1.46 1.61 1.80 2.26 2.78 2.80 1.88 1.31 1.58 1.70 1.53 1.47 1.36 1.33
0.34 0.30 0.40 0.62 0.70 0.73 0.81 0.81 0.76 0.79 0.89 0.92 0.91 0.80 0.86 0.90 1.04 1.09 1.05 1.07 1.07 1.15 1.21 1.28 1.17 1.27 1.21 1.26 1.34 1.46 1.68 1.90 2.26 2.34 1.87 1.91 1.86 1.63 1.40 1.32 1.43 1.52 1.35
0.42 0.35 0.44 0.65 0.65 0.68 0.75 0.77 0.77 0.89 1.00 0.97 0.91 0.86 0.90 0.93 1.05 1.03 1.02 1.09 1.06 1.17 1.28 1.38 1.29 1.32 1.31 1.30 1.33 1.41 1.58 1.86 1.92 1.41 1.24 1.57 1.69 1.66 1.49 1.50 1.51 1.45 1.27
0.53 0.54 0.58 0.75 0.73 0.71 0.72 0.81 0.87 0.93 0.99 1.03 0.96 0.87 0.91 0.93 1.01 0.99 0.99 1.02 1.01 1.15 1.26 1.38 1.39 1.38 1.42 1.51 1.50 1.50 1.59 1.76 1.51 1.13 1.20 1.53 1.59 1.57 1.75 1.84 1.68 1.44 1.21
0.91 0.91 0.93 0.96 0.91 0.87 0.85 0.94 1.04 0.98 0.93 0.98 0.96 0.89 0.87 0.92 0.96 0.92 0.93 0.96 0.95 1.09 1.21 1.32 1.42 1.39 1.42 1.53 1.48 1.41 1.49 1.41 1.06 1.07 1.22 1.38 1.31 1.43 1.79 1.99 1.85 1.68 1.42
1.30 1.27 1.13 1.03 0.97 0.99 1.09 1.17 1.10 0.95 0.93 0.97 0.98 0.90 0.87 0.92 0.84 0.79 0.86 0.96 0.95 1.07 1.18 1.32 1.37 1.38 1.37 1.43 1.38 1.35 1.45 1.40 1.14 1.26 1.21 1.33 1.26 1.45 1.67 1.83 1.74 1.65 1.47
1.68 1.52 1.26 1.07 1.08 0.97 0.99 1.09 1.05 0.93 0.96 1.01 1.00 0.98 1.02 1.00 0.91 0.94 0.94 1.07 1.05 1.11 1.16 1.25 1.32 1.32 1.33 1.37 1.32 1.38 1.45 1.36 1.17 1.30 1.45 1.28 1.34 1.58 1.73 1.71 1.75 1.72 1.55
2.07 1.66 1.27 1.17 1.25 1.16 1.02 0.97 1.20 1.12 1.09 1.13 1.20 1.22 1.44 1.69 1.43 1.38 1.14 1.29 1.29 1.36 1.40 1.48 1.54 1.51 1.50 1.43 1.42 1.53 1.43 1.29 1.42 1.57 1.83 1.45 1.44 1.73 1.93 1.92 1.81 1.70 1.58
2.06 2.01 1.67 1.41 1.32 1.36 1.24 1.30 1.76 1.70 1.62 1.78 1.85 1.81 2.19 2.16 1.93 1.39 1.35 1.69 1.69 1.81 1.94 2.18 2.32 2.05 1.75 1.58 1.72 2.10 1.60 1.40 1.54 1.62 1.73 1.53 1.63 2.03 2.27 2.16 1.86 1.60 1.52
2.02 1.94 1.99 1.80 1.63 1.63 1.77 1.69 1.89 2.11 2.13 2.19 2.13 2.19 2.44 2.07 1.76 1.57 1.80 2.17 2.20 2.27 2.37 2.58 2.71 2.17 2.18 2.54 2.54 2.38 2.09 1.89 1.86 1.99 2.00 1.99 2.09 2.45 2.62 2.47 2.21 1.88 1.62
2.29 2.18 2.44 2.35 2.24 2.27 2.11 2.09 1.94 1.90 1.93 2.01 2.13 2.06 2.21 2.27 2.14 2.13 2.27 2.34 2.48 2.68 2.95 2.77 2.91 2.86 2.94 2.78 2.71 2.72 2.58 2.42 2.30 2.48 2.80 2.64 2.57 2.68 2.96 2.80 2.47 2.26 2.05
2.75 2.82 2.97 3.00 3.10 2.91 2.66 2.44 2.02 2.02 1.94 1.88 1.94 1.91 2.12 2.41 2.46 2.59 2.38 2.46 2.24 2.37 2.73 3.04 3.06 3.25 3.41 3.24 2.80 2.55 2.56 2.52 2.32 2.32 2.60 2.83 2.88 2.82 2.95 3.00 2.70 2.52 2.44
3.38 3.58 3.57 3.59 3.61 3.41 3.01 2.74 2.43 2.11 2.14 1.95 1.91 1.98 2.44 2.69 2.67 2.75 2.60 2.58 2.29 2.32 2.64 3.00 3.06 3.38 3.43 3.42 2.87 2.49 2.43 2.41 2.18 2.09 2.23 2.70 2.72 2.62 2.67 2.92 2.98 2.89 2.80
4.07 4.26 4.45 4.34 4.04 4.06 3.71 2.97 2.44 2.16 2.00 2.10 2.22 2.28 2.51 2.67 2.89 3.05 2.96 2.59 2.37 2.48 2.69 2.71 2.86 3.36 3.22 3.14 2.97 2.84 2.75 2.54 2.26 2.20 2.14 2.33 2.27 2.38 2.53 2.65 2.84 3.06 3.17
4.64 5.06 5.25 4.85 4.74 4.73 4.38 3.77 3.19 2.85 2.64 2.64 2.63 2.43 2.23 2.44 2.59 2.83 2.60 2.22 2.30 2.51 2.68 2.70 2.72 3.12 3.26 3.26 3.25 3.06 2.89 2.67 2.25 2.14 2.09 2.06 2.09 1.89 2.14 2.40 2.65 2.95 3.34
4.93 5.64 6.04 6.21 5.72 5.31 4.71 4.25 3.73 3.40 3.18 2.91 2.62 2.35 2.05 1.86 1.78 2.06 2.05 1.98 1.97 2.23 2.28 2.01 2.29 2.63 2.85 2.97 2.74 2.58 2.26 2.03 1.87 1.77 1.75 1.65 1.85 1.98 2.09 2.07 2.35 2.61 3.15
5.03 5.74 6.16 6.37 5.83 5.09 4.76 4.70 4.34 3.75 3.34 2.94 2.55 2.29 1.91 1.75 1.55 1.80 1.83 1.66 1.62 1.79 1.86 2.02 2.35 2.44 2.36 2.41 2.07 1.98 1.90 1.70 1.66 1.63 1.45 1.46 1.61 1.58 1.74 1.97 2.26 2.06 2.52
5.38 6.05 6.18 5.89 5.17 4.65 4.24 3.99 3.68 3.40 3.13 2.64 2.21 1.93 1.81 1.73 1.65 1.86 1.70 1.72 1.61 1.63 1.66 1.75 1.98 2.08 1.85 2.01 2.28 2.06 1.72 1.46 1.48 1.44 1.39 1.48 1.52 1.59 1.72 2.09 2.32 2.35 2.15
4.95 5.32 5.40 5.00 4.23 3.74 3.48 3.39 3.10 2.88 2.54 2.33 2.07 2.00 1.72 1.65 1.65 1.55 1.71 1.54 1.47 1.65 1.62 1.68 1.90 1.91 1.68 1.80 2.12 2.22 1.95 1.83 1.50 1.07 1.26 1.37 1.42 1.70 1.79 1.80 2.04 2.49 2.48
4.43 4.20 3.91 3.72 3.32 3.18 3.13 2.94 2.71 2.66 2.36 2.17 1.97 1.87 1.59 1.41 1.39 1.43 1.42 1.34 1.41 1.33 1.49 1.64 1.76 1.93 1.89 1.71 1.70 2.04 1.99 1.95 1.72 1.27 1.07 1.14 1.39 1.66 1.65 1.74 1.79 2.13 2.43
3.44 3.14 2.95 2.87 2.79 2.73 2.62 2.50 2.21 2.08 2.03 1.86 1.76 1.77 1.64 1.44 1.37 1.37 1.30 1.38 1.39 1.27 1.53 1.31 1.46 1.76 1.90 1.74 1.72 1.66 1.70 1.84 1.88 1.71 1.43 1.20 1.33 1.43 1.52 1.57 1.73 2.04 2.26
2.19 2.33 2.38 2.48 2.61 2.51 2.44 2.43 2.34 2.07 2.01 1.95 1.95 2.03 1.89 1.70 1.48 1.25 1.29 1.47 1.53 1.40 1.42 1.41 1.60 1.63 1.67 1.69 1.68 1.66 1.83 1.86 1.69 1.73 1.73 1.60 1.48 1.23 1.37 1.64 1.84 1.96 2.10
1.49 1.68 1.86 1.96 2.13 2.26 2.26 2.15 2.09 2.03 2.06 2.09 2.04 1.88 1.69 1.56 1.46 1.34 1.40 1.62 1.63 1.59 1.55 1.49 1.50 1.56 1.72 1.82 1.81 1.69 1.76 1.82 1.78 1.87 1.72 1.65 1.67 1.45 1.58 1.86 1.94 1.98 1.95

GEFSSE_prec_meanprecacc_240.txt.gz
Total_Precipitation_Accumulation
0.98 1.12 1.45 1.38 1.31 1.17 1.01 1.03 1.04 1.00 1.06 1.02 0.94 0.88 0.88 0.93 0.98 1.12 1.20 1.30 1.41 1.46 1.51 1.56 1.60 1.64 1.65 1.63 1.73 1.73 1.66 1.59 1.62 1.71 1.74 1.71 1.82 2.01 2.33 2.52 2.37 1.66 1.53
0.58 0.76 1.19 1.19 1.05 1.02 0.95 0.98 0.97 0.93 0.94 0.91 0.85 0.86 0.90 0.89 0.89 1.07 1.20 1.28 1.36 1.49 1.46 1.48 1.53 1.57 1.56 1.55 1.60 1.66 1.60 1.68 1.87 2.19 2.28 2.06 2.20 2.24 2.27 2.19 2.24 1.65 1.59
0.41 0.52 0.76 1.01 0.90 0.91 0.95 0.93 0.93 0.84 0.82 0.82 0.84 0.89 0.94 0.96 0.98 1.02 1.08 1.13 1.30 1.41 1.37 1.33 1.40 1.42 1.44 1.55 1.53 1.54 1.60 1.84 2.21 2.74 3.02 2.24 1.77 2.13 2.09 1.97 1.86 1.53 1.42
0.40 0.37 0.40 0.73 0.86 0.90 0.92 0.89 0.88 0.84 0.83 0.82 0.92 0.92 0.95 1.04 1.12 1.16 1.08 1.08 1.17 1.25 1.27 1.30 1.21 1.35 1.36 1.40 1.45 1.56 1.68 1.88 2.36 2.87 2.86 1.92 1.33 1.62 1.75 1.58 1.53 1.42 1.39
0.38 0.32 0.43 0.66 0.74 0.78 0.87 0.86 0.80 0.84 0.94 0.98 0.97 0.86 0.93 0.97 1.12 1.18 1.14 1.15 1.17 1.24 1.29 1.36 1.25 1.35 1.31 1.38 1.45 1.56 1.74 1.97 2.35 2.41 1.92 1.95 1.89 1.68 1.44 1.36 1.47 1.56 1.39
0.48 0.39 0.48 0.70 0.70 0.73 0.81 0.82 0.82 0.92 1.04 1.03 0.98 0.92 0.96 0.99 1.10 1.07 1.07 1.15 1.14 1.27 1.35 1.43 1.35 1.38 1.38 1.40 1.44 1.53 1.69 1.96 2.01 1.48 1.29 1.60 1.72 1.71 1.53 1.53 1.54 1.48 1.30
0.59 0.61 0.65 0.81 0.77 0.75 0.78 0.87 0.93 0.98 1.05 1.10 1.02 0.93 0.95 0.96 1.04 1.02 1.02 1.06 1.06 1.23 1.33 1.42 1.44 1.44 1.47 1.59 1.60 1.64 1.73 1.87 1.59 1.20 1.23 1.56 1.63 1.62 1.78 1.87 1.71 1.47 1.23
0.95 0.97 0.99 1.02 0.95 0.92 0.90 1.02 1.11 1.03 1.01 1.06 1.01 0.95 0.91 0.96 0.98 0.94 0.96 0.98 0.98 1.13 1.25 1.36 1.49 1.46 1.48 1.60 1.56 1.51 1.61 1.50 1.14 1.14 1.26 1.43 1.36 1.48 1.83 2.01 1.87 1.71 1.44
1.33 1.32 1.17 1.06 1.01 1.05 1.17 1.25 1.16 1.02 1.02 1.06 1.05 0.96 0.92 0.94 0.86 0.80 0.88 0.99 0.98 1.09 1.21 1.36 1.45 1.45 1.43 1.54 1.50 1.45 1.56 1.50 1.21 1.34 1.27 1.37 1.31 1.50 1.70 1.85 1.77 1.68 1.49
1.71 1.55 1.30 1.12 1.11 1.01 1.04 1.15 1.11 1.01 1.07 1.09 1.08 1.05 1.07 1.02 0.93 0.95 0.95 1.10 1.08 1.15 1.18 1.28 1.40 1.43 1.44 1.53 1.50 1.52 1.58 1.46 1.23 1.38 1.54 1.34 1.40 1.66 1.79 1.75 1.78 1.77 1.58
2.10 1.69 1.33 1.23 1.29 1.21 1.09 1.04 1.29 1.23 1.24 1.26 1.33 1.34 1.50 1.71 1.44 1.40 1.16 1.33 1.34 1.41 1.43 1.51 1.60 1.67 1.75 1.68 1.67 1.70 1.54 1.36 1.46 1.63 1.90 1.52 1.52 1.83 2.03 1.99 1.85 1.74 1.61
2.10 2.05 1.71 1.45 1.36 1.39 1.27 1.35 1.82 1.78 1.71 1.87 1.93 1.87 2.23 2.19 1.95 1.41 1.38 1.74 1.75 1.86 1.99 2.22 2.38 2.13 1.93 1.83 1.97 2.26 1.70 1.46 1.59 1.66 1.78 1.60 1.72 2.14 2.38 2.25 1.94 1.67 1.57
2.06 1.97 2.02 1.84 1.66 1.65 1.79 1.72 1.92 2.17 2.19 2.23 2.16 2.22 2.46 2.09 1.78 1.60 1.82 2.21 2.25 2.31 2.42 2.63 2.76 2.22 2.25 2.65 2.66 2.47 2.19 1.97 1.92 2.03 2.06 2.07 2.18 2.53 2.72 2.56 2.31 1.98 1.70
2.32 2.21 2.47 2.39 2.28 2.29 2.13 2.11 1.96 1.95 1.97 2.04 2.15 2.09 2.24 2.28 2.17 2.17 2.29 2.37 2.51 2.71 3.00 2.81 2.94 2.92 3.00 2.86 2.79 2.80 2.70 2.54 2.39 2.56 2.88 2.72 2.65 2.76 3.04 2.88 2.56 2.37 2.15
2.78 2.85 2.99 3.03 3.13 2.95 2.68 2.47 2.05 2.05 1.97 1.91 1.96 1.94 2.14 2.43 2.48 2.62 2.41 2.50 2.28 2.41 2.79 3.09 3.10 3.30 3.47 3.33 2.90 2.65 2.66 2.60 2.41 2.41 2.66 2.90 2.94 2.88 3.03 3.08 2.77 2.60 2.52
3.40 3.62 3.59 3.61 3.64 3.46 3.04 2.77 2.45 2.13 2.17 1.97 1.94 2.00 2.45 2.70 2.69 2.78 2.64 2.61 2.34 2.36 2.69 3.06 3.11 3.43 3.50 3.51 2.98 2.60 2.55 2.51 2.25 2.15 2.29 2.76 2.79 2.69 2.75 3.01 3.06 2.98 2.88
4.09 4.28 4.47 4.36 4.05 4.11 3.74 2.99 2.46 2.18 2.02 2.12 2.24 2.29 2.53 2.68 2.90 3.07 2.98 2.62 2.40 2.51 2.73 2.77 2.92 3.42 3.30 3.25 3.09 2.96 2.88 2.66 2.36 2.29 2.23 2.41 2.33 2.44 2.60 2.73 2.93 3.16 3.27
4.64 5.07 5.27 4.87 4.76 4.76 4.40 3.78 3.20 2.86 2.68 2.69 2.66 2.45 2.25 2.46 2.61 2.85 2.62 2.26 2.33 2.55 2.74 2.75 2.78 3.18 3.34 3.36 3.38 3.17 3.00 2.77 2.36 2.23 2.20 2.15 2.16 1.96 2.22 2.48 2.77 3.07 3.46
4.94 5.65 6.05 6.23 5.74 5.33 4.74 4.27 3.74 3.42 3.21 2.94 2.65 2.37 2.07 1.87 1.80 2.09 2.08 2.03 2.03 2.29 2.35 2.07 2.34 2.69 2.93 3.05 2.83 2.67 2.33 2.10 1.96 1.84 1.82 1.73 1.93 2.08 2.20 2.17 2.49 2.77 3.30
5.04 5.75 6.17 6.38 5.84 5.11 4.77 4.73 4.37 3.78 3.36 2.97 2.57 2.31 1.94 1.78 1.58 1.83 1.87 1.72 1.69 1.86 1.94 2.09 2.41 2.51 2.43 2.48 2.16 2.07 1.99 1.79 1.74 1.69 1.52 1.54 1.70 1.71 1.89 2.09 2.38 2.19 2.67
5.38 6.05 6.19 5.90 5.18 4.66 4.25 4.00 3.70 3.43 3.15 2.67 2.24 1.97 1.85 1.77 1.70 1.90 1.74 1.76 1.66 1.68 1.72 1.80 2.05 2.14 1.93 2.09 2.38 2.16 1.83 1.57 1.57 1.50 1.44 1.56 1.62 1.71 1.86 2.21 2.44 2.46 2.25
4.96 5.32 5.41 5.01 4.25 3.75 3.48 3.41 3.12 2.90 2.56 2.35 2.11 2.06 1.76 1.70 1.69 1.59 1.75 1.57 1.51 1.69 1.66 1.72 1.95 1.97 1.74 1.87 2.21 2.32 2.04 1.93 1.58 1.14 1.35 1.46 1.52 1.81 1.90 1.91 2.16 2.57 2.54
4.44 4.21 3.92 3.73 3.33 3.20 3.14 2.95 2.73 2.67 2.37 2.19 1.99 1.90 1.62 1.45 1.43 1.46 1.45 1.36 1.45 1.37 1.53 1.68 1.80 1.97 1.95 1.76 1.77 2.12 2.06 2.00 1.78 1.35 1.16 1.25 1.49 1.75 1.75 1.83 1.88 2.20 2.49
3.45 3.15 2.95 2.88 2.80 2.74 2.64 2.52 2.23 2.10 2.05 1.88 1.78 1.79 1.68 1.47 1.40 1.39 1.33 1.42 1.42 1.30 1.56 1.35 1.50 1.82 1.96 1.77 1.76 1.70 1.74 1.90 1.93 1.77 1.51 1.29 1.42 1.51 1.60 1.65 1.82 2.13 2.33
2.20 2.35 2.42 2.53 2.65 2.55 2.48 2.47 2.37 2.10 2.04 1.99 1.98 2.06 1.92 1.72 1.50 1.27 1.32 1.50 1.56 1.42 1.43 1.44 1.64 1.67 1.71 1.73 1.72 1.71 1.88 1.92 1.73 1.79 1.79 1.66 1.56 1.30 1.43 1.69 1.91 2.05 2.19
1.51 1.71 1.92 2.05 2.20 2.35 2.38 2.23 2.14 2.07 2.10 2.13 2.08 1.91 1.72 1.58 1.48 1.36 1.41 1.64 1.65 1.61 1.56 1.52 1.53 1.60 1.76 1.86 1.84 1.73 1.79 1.87 1.85 1.95 1.78 1.70 1.74 1.52 1.65 1.92 2.00 2.05 2.02

GEFSSE_prec_meanprecacc_246.txt.gz
Total_Precipitation_Accumulation
1.02 1.17 1.52 1.45 1.38 1.26 1.10 1.12 1.14 1.08 1.17 1.13 1.03 0.95 1.01 1.15 1.20 1.29 1.37 1.49 1.62 1.68 1.69 1.70 1.70 1.72 1.74 1.73 1.85 1.83 1.72 1.65 1.69 1.78 1.83 1.80 1.90 2.09 2.41 2.63 2.62 1.90 1.64
0.61 0.80 1.25 1.23 1.12 1.12 1.05 1.09 1.07 1.04 1.06 1.03 0.95 0.92 0.98 1.05 1.06 1.25 1.38 1.47 1.54 1.64 1.58 1.58 1.63 1.65 1.65 1.67 1.72 1.76 1.69 1.76 1.96 2.30 2.44 2.17 2.27 2.32 2.37 2.31 2.41 1.85 1.73
0.44 0.55 0.80 1.05 0.96 1.00 1.06 1.01 1.01 0.94 0.92 0.92 0.93 0.98 1.03 1.08 1.08 1.14 1.19 1.25 1.42 1.52 1.45 1.41 1.49 1.53 1.56 1.71 1.67 1.65 1.70 1.93 2.30 2.85 3.13 2.29 1.82 2.21 2.20 2.07 1.99 1.68 1.58
0.42 0.39 0.43 0.78 0.93 0.98 1.00 0.96 0.94 0.89 0.89 0.88 0.98 0.99 1.02 1.13 1.21 1.26 1.17 1.18 1.28 1.34 1.35 1.38 1.30 1.48 1.56 1.60 1.60 1.69 1.80 1.96 2.42 2.92 2.88 1.94 1.37 1.70 1.84 1.67 1.64 1.55 1.53
0.40 0.35 0.47 0.74 0.84 0.89 0.94 0.91 0.85 0.88 0.98 1.03 1.01 0.91 0.99 1.05 1.21 1.26 1.22 1.25 1.29 1.36 1.39 1.45 1.34 1.53 1.54 1.54 1.58 1.68 1.86 2.08 2.43 2.45 1.94 1.97 1.92 1.74 1.52 1.44 1.57 1.69 1.51
0.52 0.43 0.55 0.82 0.81 0.83 0.87 0.87 0.86 0.96 1.09 1.07 1.03 0.98 1.05 1.08 1.19 1.14 1.14 1.21 1.21 1.36 1.44 1.51 1.46 1.52 1.52 1.50 1.55 1.65 1.80 2.06 2.06 1.51 1.31 1.62 1.75 1.76 1.58 1.59 1.62 1.61 1.40
0.64 0.66 0.73 0.92 0.86 0.83 0.85 0.94 0.98 1.03 1.11 1.16 1.07 0.99 1.03 1.05 1.12 1.10 1.09 1.11 1.10 1.29 1.41 1.50 1.53 1.56 1.60 1.72 1.72 1.75 1.83 1.94 1.63 1.23 1.26 1.58 1.65 1.67 1.84 1.93 1.77 1.57 1.32
0.99 1.00 1.04 1.09 1.03 0.98 0.97 1.10 1.18 1.10 1.08 1.15 1.09 1.02 0.97 1.02 1.05 1.01 1.03 1.04 1.02 1.18 1.31 1.43 1.57 1.57 1.64 1.77 1.70 1.65 1.71 1.55 1.16 1.18 1.31 1.46 1.39 1.54 1.90 2.07 1.92 1.79 1.52
1.36 1.35 1.20 1.11 1.07 1.11 1.23 1.31 1.24 1.10 1.12 1.19 1.15 1.06 0.97 0.99 0.92 0.86 0.94 1.06 1.03 1.15 1.27 1.42 1.51 1.54 1.57 1.71 1.64 1.56 1.65 1.56 1.23 1.37 1.32 1.42 1.36 1.56 1.77 1.91 1.82 1.74 1.55
1.74 1.59 1.34 1.16 1.14 1.03 1.08 1.21 1.19 1.15 1.23 1.25 1.20 1.16 1.15 1.09 1.01 1.04 1.05 1.18 1.14 1.21 1.24 1.34 1.45 1.49 1.52 1.66 1.62 1.62 1.67 1.54 1.26 1.40 1.57 1.38 1.45 1.71 1.82 1.80 1.83 1.82 1.63
2.13 1.72 1.36 1.27 1.33 1.23 1.11 1.08 1.39 1.43 1.43 1.42 1.45 1.43 1.57 1.75 1.48 1.44 1.23 1.42 1.44 1.50 1.51 1.59 1.68 1.74 1.89 1.83 1.82 1.84 1.67 1.44 1.50 1.66 1.94 1.56 1.58 1.88 2.07 2.03 1.89 1.79 1.67
2.14 2.08 1.74 1.49 1.40 1.41 1.30 1.39 1.91 1.92 1.86 1.96 1.99 1.91 2.26 2.22 1.97 1.42 1.42 1.83 1.85 1.98 2.09 2.32 2.48 2.21 2.13 2.09 2.24 2.51 1.87 1.59 1.64 1.70 1.82 1.64 1.79 2.20 2.43 2.31 1.98 1.72 1.63
2.09 1.99 2.04 1.87 1.69 1.67 1.82 1.76 1.98 2.24 2.26 2.26 2.19 2.24 2.48 2.11 1.79 1.61 1.84 2.26 2.30 2.38 2.50 2.71 2.84 2.28 2.39 3.00 3.03 2.77 2.38 2.11 1.99 2.07 2.09 2.11 2.25 2.61 2.80 2.64 2.38 2.07 1.80
2.35 2.23 2.48 2.41 2.30 2.30 2.14 2.12 1.98 1.97 2.00 2.06 2.17 2.10 2.25 2.29 2.18 2.18 2.30 2.38 2.54 2.73 3.03 2.85 2.99 2.95 3.13 3.11 3.07 3.04 2.88 2.66 2.46 2.60 2.92 2.79 2.73 2.84 3.13 2.96 2.65 2.48 2.27
2.80 2.87 3.00 3.04 3.15 2.97 2.70 2.48 2.06 2.07 2.00 1.93 1.98 1.95 2.15 2.43 2.49 2.63 2.42 2.51 2.30 2.43 2.80 3.12 3.13 3.34 3.58 3.51 3.06 2.79 2.77 2.68 2.46 2.44 2.70 2.97 3.02 2.95 3.12 3.19 2.88 2.70 2.63
3.41 3.63 3.61 3.62 3.64 3.47 3.05 2.78 2.47 2.16 2.20 2.00 1.96 2.02 2.47 2.71 2.70 2.79 2.65 2.63 2.36 2.39 2.71 3.08 3.14 3.47 3.55 3.60 3.08 2.69 2.64 2.58 2.30 2.19 2.33 2.83 2.90 2.78 2.84 3.10 3.19 3.10 2.97
4.10 4.30 4.50 4.37 4.06 4.12 3.74 3.00 2.48 2.20 2.06 2.15 2.27 2.32 2.57 2.71 2.92 3.08 3.00 2.64 2.42 2.54 2.77 2.80 2.95 3.45 3.35 3.31 3.18 3.06 2.96 2.75 2.44 2.37 2.30 2.47 2.41 2.52 2.69 2.82 3.05 3.29 3.39
4.66 5.09 5.30 4.89 4.77 4.77 4.41 3.80 3.22 2.89 2.71 2.71 2.68 2.48 2.31 2.51 2.63 2.87 2.65 2.28 2.36 2.59 2.78 2.79 2.81 3.21 3.38 3.41 3.44 3.25 3.08 2.86 2.46 2.33 2.28 2.24 2.24 2.02 2.29 2.60 2.91 3.21 3.59
4.94 5.66 6.07 6.26 5.76 5.35 4.75 4.29 3.76 3.45 3.25 2.98 2.68 2.39 2.09 1.90 1.83 2.11 2.10 2.05 2.06 2.33 2.38 2.10 2.36 2.71 2.96 3.09 2.89 2.76 2.43 2.21 2.06 1.92 1.88 1.79 1.99 2.14 2.28 2.29 2.66 2.94 3.48
5.04 5.75 6.17 6.40 5.86 5.13 4.80 4.75 4.40 3.82 3.38 3.00 2.60 2.34 1.96 1.80 1.61 1.85 1.89 1.74 1.71 1.89 1.97 2.11 2.44 2.53 2.46 2.52 2.22 2.16 2.10 1.90 1.84 1.76 1.57 1.60 1.77 1.77 1.97 2.21 2.51 2.39 2.90
5.38 6.06 6.20 5.92 5.20 4.68 4.27 4.01 3.72 3.45 3.17 2.69 2.27 2.01 1.88 1.79 1.73 1.92 1.77 1.80 1.69 1.72 1.76 1.84 2.08 2.17 1.96 2.13 2.44 2.23 1.92 1.67 1.65 1.56 1.49 1.62 1.67 1.76 1.91 2.30 2.56 2.64 2.50
4.96 5.33 5.41 5.03 4.26 3.77 3.50 3.43 3.15 2.94 2.59 2.39 2.16 2.10 1.82 1.74 1.73 1.62 1.79 1.61 1.54 1.73 1.70 1.78 2.00 2.01 1.79 1.93 2.26 2.37 2.09 1.98 1.63 1.19 1.39 1.50 1.55 1.84 1.94 1.96 2.21 2.64 2.66
4.45 4.22 3.94 3.75 3.35 3.22 3.16 2.98 2.76 2.70 2.40 2.24 2.05 1.95 1.67 1.50 1.47 1.50 1.49 1.40 1.49 1.42 1.58 1.74 1.85 2.02 2.00 1.81 1.82 2.16 2.10 2.04 1.81 1.39 1.20 1.28 1.52 1.79 1.79 1.87 1.91 2.23 2.51
3.47 3.18 2.99 2.90 2.82 2.76 2.67 2.54 2.25 2.12 2.07 1.93 1.84 1.85 1.73 1.53 1.45 1.43 1.37 1.46 1.48 1.36 1.61 1.41 1.56 1.86 2.00 1.81 1.79 1.73 1.77 1.92 1.95 1.79 1.52 1.31 1.45 1.54 1.65 1.70 1.86 2.15 2.37
2.22 2.37 2.45 2.57 2.68 2.59 2.51 2.48 2.37 2.11 2.06 2.03 2.02 2.10 1.97 1.77 1.55 1.32 1.36 1.55 1.59 1.46 1.49 1.50 1.68 1.70 1.74 1.76 1.75 1.73 1.89 1.93 1.75 1.80 1.80 1.67 1.58 1.33 1.46 1.73 1.94 2.07 2.22
1.53 1.73 1.94 2.07 2.23 2.39 2.41 2.24 2.15 2.09 2.12 2.16 2.10 1.93 1.74 1.61 1.51 1.40 1.47 1.70 1.69 1.64 1.59 1.55 1.57 1.62 1.78 1.89 1.86 1.74 1.81 1.89 1.87 1.97 1.79 1.72 1.75 1.53 1.67 1.94 2.03 2.08 2.06

GEFSSE_prec_meanprecacc_252.txt.gz
Total_Precipitation_Accumulation
1.05 1.22 1.60 1.54 1.49 1.38 1.16 1.17 1.22 1.20 1.33 1.30 1.18 1.12 1.19 1.30 1.32 1.41 1.48 1.60 1.75 1.89 1.93 1.88 1.84 1.85 1.91 1.88 1.94 1.91 1.80 1.73 1.77 1.84 1.89 1.86 1.97 2.15 2.47 2.73 2.78 2.09 1.75
0.63 0.84 1.31 1.30 1.23 1.28 1.21 1.22 1.17 1.15 1.21 1.20 1.08 1.10 1.18 1.24 1.23 1.40 1.54 1.66 1.78 1.94 1.82 1.74 1.76 1.79 1.83 1.81 1.81 1.84 1.78 1.85 2.04 2.37 2.51 2.24 2.34 2.38 2.43 2.41 2.58 2.11 1.88
0.46 0.57 0.84 1.12 1.06 1.13 1.21 1.18 1.18 1.10 1.09 1.10 1.09 1.15 1.24 1.31 1.31 1.34 1.39 1.48 1.70 1.79 1.63 1.54 1.61 1.69 1.71 1.85 1.81 1.76 1.81 2.02 2.37 2.92 3.20 2.35 1.88 2.27 2.26 2.16 2.17 1.94 1.74
0.44 0.42 0.46 0.83 1.01 1.09 1.11 1.08 1.08 1.07 1.07 1.04 1.16 1.17 1.19 1.33 1.43 1.47 1.39 1.41 1.51 1.53 1.48 1.49 1.42 1.64 1.72 1.76 1.74 1.81 1.90 2.04 2.48 2.97 2.92 1.98 1.41 1.76 1.92 1.79 1.85 1.77 1.67
0.42 0.37 0.51 0.78 0.91 0.99 1.03 0.99 0.96 1.05 1.16 1.19 1.13 1.04 1.13 1.20 1.37 1.42 1.39 1.43 1.47 1.52 1.53 1.56 1.46 1.71 1.76 1.69 1.71 1.80 1.95 2.15 2.47 2.47 1.96 2.00 1.98 1.80 1.58 1.55 1.77 1.85 1.62
0.54 0.47 0.61 0.87 0.89 0.93 0.96 0.93 0.93 1.08 1.23 1.23 1.15 1.11 1.20 1.22 1.31 1.26 1.26 1.34 1.32 1.46 1.55 1.63 1.62 1.76 1.73 1.64 1.68 1.76 1.89 2.12 2.09 1.54 1.33 1.65 1.79 1.81 1.64 1.69 1.74 1.72 1.49
0.67 0.72 0.82 0.97 0.93 0.93 0.95 1.01 1.06 1.11 1.20 1.28 1.19 1.09 1.15 1.17 1.23 1.21 1.21 1.24 1.21 1.39 1.49 1.62 1.72 1.77 1.76 1.86 1.86 1.89 1.92 1.99 1.66 1.26 1.29 1.61 1.68 1.71 1.90 2.00 1.84 1.63 1.40
1.02 1.05 1.10 1.16 1.10 1.07 1.07 1.17 1.25 1.18 1.15 1.24 1.20 1.13 1.08 1.15 1.16 1.10 1.12 1.14 1.12 1.29 1.41 1.54 1.70 1.73 1.80 1.94 1.87 1.78 1.80 1.60 1.19 1.21 1.35 1.52 1.44 1.58 1.95 2.14 1.98 1.85 1.60
1.39 1.38 1.26 1.18 1.13 1.17 1.30 1.39 1.32 1.20 1.20 1.29 1.26 1.18 1.11 1.14 1.07 0.97 1.02 1.15 1.12 1.24 1.36 1.52 1.63 1.70 1.75 1.90 1.83 1.72 1.76 1.63 1.28 1.41 1.37 1.48 1.40 1.60 1.81 1.96 1.88 1.82 1.65
1.77 1.63 1.40 1.23 1.19 1.07 1.13 1.29 1.28 1.24 1.32 1.36 1.32 1.28 1.32 1.27 1.14 1.17 1.16 1.27 1.23 1.30 1.32 1.41 1.53 1.60 1.66 1.81 1.78 1.80 1.81 1.64 1.34 1.45 1.64 1.46 1.51 1.77 1.88 1.85 1.90 1.92 1.75
2.16 1.75 1.39 1.30 1.36 1.26 1.15 1.14 1.48 1.53 1.54 1.56 1.66 1.69 1.81 1.89 1.57 1.55 1.33 1.51 1.53 1.58 1.60 1.69 1.75 1.82 1.99 1.96 2.00 2.00 1.84 1.56 1.60 1.73 2.01 1.61 1.63 1.95 2.15 2.10 1.96 1.87 1.77
2.16 2.11 1.77 1.52 1.42 1.44 1.33 1.46 2.02 2.03 2.01 2.13 2.25 2.22 2.44 2.30 2.05 1.49 1.49 1.90 1.94 2.06 2.18 2.43 2.57 2.28 2.22 2.19 2.41 2.67 2.02 1.70 1.73 1.76 1.89 1.70 1.85 2.27 2.50 2.38 2.05 1.79 1.72
2.12 2.03 2.06 1.89 1.72 1.70 1.84 1.79 2.02 2.32 2.38 2.40 2.33 2.37 2.55 2.15 1.83 1.65 1.90 2.32 2.35 2.43 2.55 2.77 2.91 2.33 2.46 3.09 3.16 2.92 2.52 2.24 2.11 2.14 2.16 2.16 2.31 2.71 2.90 2.73 2.47 2.17 1.91
2.37 2.25 2.49 2.42 2.32 2.33 2.16 2.15 2.01 2.01 2.06 2.10 2.21 2.14 2.28 2.34 2.23 2.24 2.36 2.43 2.57 2.77 3.07 2.89 3.04 3.00 3.19 3.20 3.15 3.13 3.01 2.82 2.62 2.69 2.99 2.85 2.79 2.92 3.23 3.05 2.74 2.60 2.38
2.81 2.88 3.01 3.05 3.16 2.99 2.73 2.52 2.08 2.09 2.02 1.95 2.01 1.98 2.18 2.48 2.54 2.68 2.47 2.57 2.35 2.49 2.86 3.17 3.20 3.40 3.66 3.59 3.16 2.92 2.95 2.89 2.65 2.57 2.78 3.04 3.08 3.01 3.20 3.29 2.97 2.81 2.73
3.42 3.65 3.62 3.63 3.66 3.48 3.08 2.82 2.51 2.19 2.24 2.04 1.99 2.05 2.51 2.75 2.75 2.84 2.70 2.68 2.42 2.44 2.76 3.13 3.22 3.54 3.62 3.67 3.16 2.83 2.80 2.78 2.50 2.34 2.44 2.93 2.99 2.87 2.94 3.21 3.30 3.23 3.10
4.11 4.31 4.51 4.38 4.07 4.13 3.78 3.04 2.52 2.24 2.09 2.20 2.32 2.35 2.64 2.77 2.98 3.13 3.04 2.68 2.48 2.59 2.82 2.85 3.01 3.50 3.39 3.37 3.26 3.15 3.08 2.89 2.59 2.50 2.42 2.60 2.51 2.63 2.81 2.95 3.20 3.43 3.51
4.66 5.09 5.31 4.89 4.78 4.79 4.45 3.84 3.26 2.93 2.75 2.77 2.74 2.55 2.38 2.56 2.68 2.92 2.68 2.31 2.40 2.64 2.83 2.85 2.87 3.25 3.41 3.47 3.52 3.36 3.19 2.99 2.58 2.44 2.39 2.34 2.34 2.10 2.37 2.68 3.02 3.31 3.70
4.95 5.67 6.08 6.27 5.77 5.36 4.78 4.33 3.81 3.51 3.32 3.05 2.74 2.46 2.17 1.96 1.87 2.18 2.15 2.08 2.10 2.37 2.43 2.14 2.41 2.75 3.00 3.14 2.95 2.85 2.54 2.32 2.19 2.03 1.99 1.90 2.09 2.23 2.37 2.37 2.72 3.01 3.59
5.04 5.76 6.18 6.42 5.89 5.16 4.84 4.81 4.46 3.89 3.45 3.06 2.67 2.41 2.04 1.87 1.66 1.90 1.93 1.78 1.74 1.93 2.01 2.16 2.49 2.59 2.52 2.59 2.27 2.24 2.20 2.00 1.96 1.88 1.67 1.69 1.86 1.85 2.04 2.27 2.59 2.47 2.99
5.39 6.06 6.21 5.93 5.23 4.73 4.32 4.07 3.79 3.54 3.25 2.76 2.36 2.08 1.96 1.86 1.79 1.99 1.83 1.86 1.74 1.76 1.82 1.90 2.14 2.24 2.04 2.21 2.53 2.33 2.02 1.78 1.76 1.66 1.58 1.70 1.74 1.82 1.96 2.35 2.61 2.70 2.60
4.97 5.34 5.42 5.04 4.28 3.80 3.54 3.48 3.21 3.02 2.70 2.48 2.23 2.18 1.87 1.79 1.78 1.68 1.86 1.69 1.61 1.79 1.78 1.86 2.09 2.07 1.85 2.00 2.37 2.48 2.20 2.10 1.73 1.25 1.44 1.55 1.61 1.88 1.97 1.99 2.24 2.68 2.71
4.45 4.23 3.95 3.75 3.37 3.24 3.18 3.00 2.79 2.74 2.47 2.31 2.10 2.01 1.72 1.55 1.54 1.58 1.56 1.46 1.55 1.48 1.67 1.84 1.94 2.10 2.07 1.88 1.89 2.25 2.20 2.14 1.91 1.46 1.25 1.32 1.57 1.84 1.82 1.88 1.93 2.26 2.54
3.48 3.18 3.00 2.92 2.83 2.78 2.69 2.58 2.28 2.15 2.11 1.97 1.89 1.91 1.79 1.58 1.53 1.51 1.44 1.53 1.56 1.44 1.70 1.48 1.62 1.95 2.10 1.90 1.86 1.80 1.84 1.99 2.03 1.87 1.59 1.36 1.48 1.57 1.68 1.72 1.88 2.18 2.40
2.23 2.38 2.46 2.58 2.69 2.60 2.53 2.50 2.40 2.13 2.09 2.06 2.06 2.15 2.02 1.80 1.59 1.36 1.41 1.61 1.66 1.53 1.56 1.56 1.73 1.75 1.81 1.86 1.83 1.80 1.95 1.98 1.82 1.87 1.86 1.73 1.62 1.36 1.49 1.76 1.97 2.09 2.24
1.54 1.74 1.95 2.08 2.24 2.41 2.43 2.26 2.17 2.11 2.15 2.19 2.13 1.96 1.77 1.63 1.53 1.41 1.50 1.75 1.74 1.69 1.66 1.62 1.63 1.66 1.83 1.95 1.92 1.80 1.86 1.94 1.93 2.03 1.84 1.77 1.80 1.56 1.69 1.96 2.04 2.09 2.08